Regional Weather Roundup
Issued by NWS

Home | Current Version | Previous Version | Text Only | Print | Product List | Glossary On
Versions: 1 2 3 4 5 6 7 8 9 10 11 12 13 14 15 16 17 18 19 20 21 22 23 24 25 26 27 28 29 30 31 32 33 34 35 36 37 38 39 40 41 42 43 44 45 46 47 48 49 50
000
ASUS45 KPSR 211710
RWRAZ

ARIZONA REGIONAL HOURLY WEATHER ROUNDUP
NATIONAL WEATHER SERVICE PHOENIX AZ
1000 AM MST TUE OCT 21 2014

NOTE: FAIR INDICATES FEW OR NO CLOUDS BELOW 12,000 FEET WITH NO
SIGNIFICANT WEATHER AND/OR OBSTRUCTIONS TO VISIBILITY.

AZZ001>003-036-211800-
NORTHWEST ARIZONA

CITY           SKY/WX    TMP DP  RH WIND       PRES   REMARKS
BULLHEAD CITY  SUNNY     77  46  33 CALM      29.88S
KINGMAN        SUNNY     76  43  30 SW14      30.00R
$$

AZZ004>008-015-016-018-211800-
NORTH CENTRAL ARIZONA

CITY           SKY/WX    TMP DP  RH WIND       PRES   REMARKS
GRAND CANYON   SUNNY     60  41  49 SW8       30.17F
PRESCOTT       MOSUNNY   66  43  43 CALM      30.10F
FLAGSTAFF      MOSUNNY   57  42  57 SW6       30.19F
PAYSON         SUNNY     64  46  52 VRB5      30.14S
$$

AZZ009>014-017-211800-
NORTHEAST ARIZONA

CITY           SKY/WX    TMP DP  RH WIND       PRES   REMARKS
WINSLOW        SUNNY     64  45  49 E7        30.12F
SAINT JOHNS    SUNNY     58  45  62 VRB3      30.15S
SHOW LOW       SUNNY     59  41  51 SW7       30.20S
$$

AZZ023-211800-
GREATER PHOENIX AREA

CITY           SKY/WX    TMP DP  RH WIND       PRES   REMARKS
PHOENIX        PTSUNNY   81  52  36 E8        29.90S
BUCKEYE          N/A     81  50  34 E14G21    29.90S
GLENDALE       MOSUNNY   79  54  41 E3        29.92S
LUKE AFB       MOSUNNY   78  52  41 CALM      29.90F
DEER VALLEY    SUNNY     81  49  32 E6        29.91F
SCOTTSDALE     SUNNY     79  50  36 CALM      29.93S
MESA-FALCON    MOSUNNY   77  50  38 NE9       29.92
MESA-GATEWAY   MOSUNNY   79  54  41 CALM      29.94R
CHANDLER       MOSUNNY   79  54  41 E7        29.92S
$$

AZZ027-028-211800-
SOUTHWEST MARICOPA COUNTY AND PINAL COUNTY

CITY           SKY/WX    TMP DP  RH WIND       PRES   REMARKS
CASA GRANDE    SUNNY     77  52  41 CALM      29.93S
GILA BEND      SUNNY     81  52  36 NE3       29.90R
$$

AZZ503-504-507>509-211800-
SOUTHEAST ARIZONA

CITY           SKY/WX    TMP DP  RH WIND       PRES   REMARKS
TUCSON         SUNNY     75  49  39 E14       29.99S
DAVIS-MONTHAN  SUNNY     75  49  40 E10G17    29.97F
RYAN FIELD       N/A     75  52  43 E13       29.97
NOGALES          N/A     70  32  24 MISG      30.03F
SIERRA VISTA   MOSUNNY   68  45  42 E6        30.08F
DOUGLAS        SUNNY     67  49  52 VRB5      30.07F
SAFFORD        SUNNY     68  52  56 SE6       30.04F
$$

AZZ020-021-025-026-031-211800-
SOUTHWEST ARIZONA

CITY           SKY/WX    TMP DP  RH WIND       PRES   REMARKS
YUMA           MOSUNNY   83  56  39 CALM      29.84S
$$

CAZ031-033-041-043-047-048-061-211800-
SOUTHERN CALIFORNIA

CITY           SKY/WX    TMP DP  RH WIND       PRES   REMARKS
DOWNTOWN L.A.  SUNNY     70  59  68 CALM      29.91F HAZE
L.A. AIRPORT   MOSUNNY   69  59  70 CALM      29.92F
SAN DIEGO      MOSUNNY   70  60  70 CALM      29.92F
BURBANK        SUNNY     66  55  67 CALM      29.92F
ONTARIO        CLOUDY    63  59  87 S3        29.94S FOG
RIVERSIDE      PTSUNNY   63  59  87 CALM      29.94S FOG
PALM SPRINGS   SUNNY     81  50  33 S3        29.86F
EL CENTRO NAS  SUNNY     83  52  34 E5        29.81F
IMPERIAL       SUNNY     83  52  34 E5        29.81F
BLYTHE         SUNNY     80  49  33 SE7       29.85F
NEEDLES        SUNNY     81  46  29 CALM      29.87S
$$

NVZ020-UTZ003-211800-
SOUTHERN NEVADA-UTAH

CITY           SKY/WX    TMP DP  RH WIND       PRES   REMARKS
LAS VEGAS      SUNNY     76  38  25 S18       29.86F
SALT LAKE CITY MOSUNNY   62  38  40 NW20      29.96R
$$

NMZ009-TXZ055-211800-
NEW MEXICO-WEST TEXAS

CITY           SKY/WX    TMP DP  RH WIND       PRES   REMARKS
ALBUQUERQUE    MOSUNNY   60  48  64 SW6       30.18R
EL PASO        PTSUNNY   66  53  63 CALM      30.10S
$$


........................KEY........................
SKY/WX - SKY CONDITION/WEATHER
TMP    - TEMPERATURE IN FAHRENHEIT
DP     - DEW POINT IN FAHRENHEIT
RH     - RELATIVE HUMIDITY IN PERCENT
WIND   - DIRECTION AND SPEED IN MILES PER HOUR (MPH)
VRB    - VARIABLE WIND DIRECTION
PRES   - MEAN SEA LEVEL PRESSURE IN INCHES OF MERCURY
         F - FALLING PRESSURE   R - RISING PRESSURE
         S - STEADY PRESSURE
VSB    - VISIBILITY IN MILES
HX     - HEAT INDEX IN FAHRENHEIT
WCI    - WIND CHILL INDEX IN FAHRENHEIT
TC     - TEMPERATURE IN CELSIUS WHICH IS ALSO KNOWN AS
         TEMPERATURE IN CENTIGRADE
AFB    - AIR FORCE BASE
         LUKE AFB IS LUKE AIR FORCE BASE
         DAVIS-MONTHAN IS DAVIS-MONTHAN AIR FORCE BASE
NAS    - NAVAL AIR STATION
         EL CENTRO NAS IS EL CENTRO NAVAL AIR STATION
N/A    - NOT AVAILABLE



USA.gov is the U.S. government's official web portal to all federal, state and local government web resources and services.